Flag for Brazil Weather past 2 weeks in Uruguaiana, Rio Grande do Sul, Brazil

Now
59 °F

Light rain. Partly cloudy.


Feels Like: 60 °F
Forecast: 64 / 74 °F
Wind: 3 mph from East

Location: Pelotas Airport

Current Time: Aug 5, 2015 at 4:17:06 AM

Latest Report: Aug 4, 2015 at 11:00 PM


Visibility: N/A

Pressure: 30.18 "Hg

Humidity: 100%

Dew point: 59 °F

Location of UruguaianaLocation

Historic Weather in Uruguaiana — Graph

°F

Uruguaiana temperature yesterday

Maximum temperature yesterday: 64 °F (at 2:00 PM)
Minimum temperature yesterday: 50 °F (at 7:00 AM)
Average temperature yesterday: 59 °F

Past Weeks' High & Low Weather Summary

 TemperatureHumidityPressure
High84 °F (Aug 2, 11:00 AM)100% (Jul 20, 11:00 PM)30.30 "Hg (Jul 20, 11:00 PM)
Low41 °F (Jul 22, 6:00 AM)43% (Aug 2, 11:00 AM)29.77 "Hg (Aug 2, 7:00 AM)
Average61 °F92%30.11 "Hg
* Reported Jul 20 11:00 PM — Aug 4 11:00 PM, Uruguaiana, Weather by CustomWeather, © 2015

Note: Actual official high and low records may vary slightly from our data, if they occured in-between our weather recording intervals... More about our weather records

Advertising

Uruguaiana weather history for previous 24 hours

 ConditionsComfort  
Time TempWeatherWind HumidityBarometerVisibility
11:00 PM
Tue, Aug 4
59 °FLight rain. Partly cloudy.3 mph100%30.18 "HgN/A
10:00 PM59 °FPassing clouds.7 mph100%30.15 "HgN/A
9:00 PM59 °FPassing clouds.9 mph100%30.15 "HgN/A
8:00 PM59 °FPartly cloudy.6 mph100%30.15 "HgN/A
7:00 PM61 °FPartly cloudy.6 mph94%30.15 "HgN/A
6:00 PM61 °FMostly cloudy.10 mph94%30.12 "HgN/A
5:00 PM63 °FOvercast.8 mph73%30.12 "HgN/A
4:00 PM63 °FSunny.9 mph64%30.12 "Hg10 mi
3:00 PM64 °FSunny.10 mph52%30.12 "Hg10 mi
2:00 PM64 °FSunny.10 mph56%30.15 "Hg10 mi
1:00 PM63 °FSunny.10 mph64%30.18 "Hg10 mi
12:00 PM63 °FSunny.9 mph68%30.18 "Hg10 mi
11:00 AM61 °FSunny.10 mph100%30.18 "Hg10 mi
10:00 AM59 °FSunny.5 mph100%30.18 "Hg10 mi
9:00 AM55 °FClear.No wind100%30.18 "Hg5 mi
8:00 AM50 °FFog.2 mph100%30.15 "Hg3 mi
7:00 AM50 °FFog.3 mph100%30.15 "Hg1 mi
6:00 AM52 °FFog.2 mph100%30.12 "Hg0 mi
Weather by CustomWeather, © 2015

See weather overviewHow to use our weather pages